Regional Weather Roundup
Issued by NWS Portland, ME

Home | Current Version | Previous Version | Text Only | Print | Product List | Glossary On
Versions: 1 2 3 4 5 6 7 8 9 10 11 12 13 14 15 16 17 18 19 20 21 22 23 24 25 26 27 28 29 30 31 32 33 34 35 36 37 38 39 40 41 42 43 44 45 46 47 48 49 50
000
ASUS41 KGYX 200610
RWRGYX
WEATHER ROUNDUP FOR MAINE AND NEW HAMPSHIRE
NATIONAL WEATHER SERVICE GRAY ME
200 AM EDT SAT SEP 20 2014

MEZ002-005-006-010-012-015-018-020-021-024-026-027-029-200700-
MAINE

CITY           SKY/WX    TMP DP  RH WIND       PRES   REMARKS
PORTLAND       CLEAR     39  32  76 W5        30.40R
6HR MIN TEMP:  36; 6HR MAX TEMP:  47;

SANFORD        CLEAR     30  25  80 SW3       30.40S
BAR HARBOR     CLEAR     37  37 100 CALM      30.39F
WISCASSET      CLEAR     34  31  88 CALM      30.40S
6HR MIN TEMP:  34; 6HR MAX TEMP:  42;

ROCKLAND       CLEAR     48  32  53 SW8       30.39S
FRYEBURG       CLEAR     31  29  92 CALM      30.38S
6HR MIN TEMP:  31; 6HR MAX TEMP:  45;

LEWISTONAUBURN CLEAR     37  28  70 CALM      30.38S
AUGUSTA        CLEAR     40  35  83 SW5       30.38S
6HR MIN TEMP:  38; 6HR MAX TEMP:  45;

WATERVILLE     CLEAR     37  30  75 CALM      30.33S
BANGOR         PTCLDY    40  33  76 VRB5      30.38S
6HR MIN TEMP:  38; 6HR MAX TEMP:  47;

GREENVILLE       N/A     38  31  76 S6        30.28F
6HR MIN TEMP:  37; 6HR MAX TEMP:  43;

MILLINOCKET    PTCLDY    40  34  79 CALM      30.35S
6HR MIN TEMP:  39; 6HR MAX TEMP:  43;

HOULTON        MOCLDY    42  30  62 S8        30.31F
6HR MIN TEMP:  30; 6HR MAX TEMP:  44;

PRESQUE ISLE   MOCLDY    45  25  45 S10       30.26F
6HR MIN TEMP:  36; 6HR MAX TEMP:  45;

FRENCHVILLE    CLOUDY    40  28  62 S10       30.21F
6HR MIN TEMP:  39; 6HR MAX TEMP:  42;

CARIBOU        MOCLDY    41  28  60 S3        30.25F
6HR MIN TEMP:  38; 6HR MAX TEMP:  42;

$$

NHZ002-005-008-009-011-012-014-200700-
NEW HAMPSHIRE

CITY           SKY/WX    TMP DP  RH WIND       PRES   REMARKS
PORTSMOUTH     CLEAR     40  36  86 W5        30.39S
ROCHESTER      CLEAR     34  31  88 CALM      30.39S
6HR MIN TEMP:  34; 6HR MAX TEMP:  45;

NASHUA         CLEAR     37  35  92 CALM      30.41R
MANCHESTER     CLEAR     39  32  76 CALM      30.38F
6HR MIN TEMP:  39; 6HR MAX TEMP:  49;

CONCORD        CLEAR     35  32  88 CALM      30.39S
6HR MIN TEMP:  33; 6HR MAX TEMP:  46;

LACONIA        CLEAR     36  30  80 CALM      30.36F
PLYMOUTH       FAIR      31  31 100 CALM      30.38F FOG
BERLIN         CLEAR     30  28  92 N3        30.31S
6HR MIN TEMP:  27; 6HR MAX TEMP:  40;

WHITEFIELD     CLEAR     29  26  89 CALM      30.31F
6HR MIN TEMP:  29; 6HR MAX TEMP:  40;

JAFFREY        CLEAR     35  33  92 S5        30.38S
6HR MIN TEMP:  35; 6HR MAX TEMP:  45;

LEBANON        CLEAR     38  34  85 S3        30.34F
6HR MIN TEMP:  35; 6HR MAX TEMP:  45;

MT WASHINGTON  MOCLDY    30  28  93 W46         N/A  WCI  12
6HR MIN TEMP:  29; 6HR MAX TEMP:  35;

$$

VTZ005-007-008-200700-
VERMONT

CITY           SKY/WX    TMP DP  RH WIND       PRES   REMARKS
ST JOHNSBURY     N/A     39  35  86 MISG      30.30F
MONTPELIER     PTCLDY    42  35  76 CALM      30.33S
BURLINGTON     CLEAR     50  36  58 S9        30.25F
$$

MAZ007-012-024-CTZ003-RIZ002-NYZ038-NYZ072-200700-
SOUTHERN NEW ENGLAND AND NY

CITY           SKY/WX    TMP DP  RH WIND       PRES   REMARKS
BOSTON         CLEAR     49  38  65 S5        30.40R
WORCESTER      CLEAR     41  34  76 S6        30.38R
NANTUCKET      PTCLDY    52  42  69 SE10      30.38F
PROVIDENCE     CLEAR     45  39  79 NW3       30.39S
HARTFORD       PTCLDY    43  39  86 CALM      30.37S
ALBANY         CLEAR     52  43  71 S16G24    30.30F
NEW YORK CITY  PTCLDY    59  48  67 E6        30.32F
$$

ANZ081-ANZ082-ANZ150-NHZ014-MEZ023>029-200700-
COASTAL MARINE OBSERVATIONS

STATION/POSITION TIME  TEMP    WIND        PRES    WAVE
                       AIR SEA DIR/SP/G            HT/PER
                 (UTC) (F)     (DEG/KT/KT) (MB)    (FT/S)
MATINICUS ROCK   0600          200/ 18/ 19 1028.9F
PORTLAND WX BUOY 0550   54 57  190/ 16/ 17 1028.9F   3/ 4
WELLS            0500                      1028.6R
ISLE OF SHOALS   0600   54     190/ 17/ 19 1028.5S
JEFFREYS LEDGE   0521      58                N/A     3/ 6
CASHES LEDGE BUO 0550   53 57              1029.6R   2/ 8
$$

.............KEY..............
   WCI - WIND CHILL
   TC  - TEMPERATURE IN CELSIUS
   VSB - VISIBILITY IN MILES
   HX  - HEAT INDEX
   FAIR- INDICATES FEW OR NO CLOUDS BELOW 12,000 FT, WITH NO
         SIGNIFICANT WEATHER AND/OR OBSTRUCTIONS TO VISIBILITY.





USA.gov is the U.S. government's official web portal to all federal, state and local government web resources and services.